This is the latest recevied weather packets stored in our database for station/object K8GLX. If no packets are shown the sender has not sent any weather packets the latest 10 day(s).
| Time | Temp. | Humidity | Pressure | Rain* | Wind** | Luminosity | Snow |
|---|---|---|---|---|---|---|---|
| 1777637663 | 6.11° C | 92% | 1012.8 hPa | 1.02 mm | - | 12 W/m² | - |
| 1777637229 | 6.11° C | 92% | 1012.5 hPa | 0.76 mm | - | 17 W/m² | - |
| 1777636935 | 6.11° C | 92% | 1012.4 hPa | 0.76 mm | - | 20 W/m² | - |
| 1777636628 | 6.11° C | 91% | 1012.6 hPa | 0.76 mm | - | 17 W/m² | - |
| 1777636334 | 6.11° C | 91% | 1012.6 hPa | 0.76 mm | - | 15 W/m² | - |
| 1777636029 | 6.11° C | 91% | 1012.6 hPa | 0.51 mm | - | 13 W/m² | - |
| 1777635867 | 6.11° C | 92% | 1012.6 hPa | 0.51 mm | - | 17 W/m² | - |
| 1777635429 | 6.11° C | 91% | 1012.5 hPa | 0.25 mm | - | 12 W/m² | - |
| 1777635134 | 6.11° C | 91% | 1012.6 hPa | 0.51 mm | - | 13 W/m² | - |
| 1777634829 | 6.11° C | 91% | 1012.5 hPa | 0.25 mm | - | 12 W/m² | - |
| 1777634535 | 6.11° C | 91% | 1012.5 hPa | 0.51 mm | - | 15 W/m² | - |
| 1777634229 | 6.11° C | 91% | 1012.6 hPa | 0.51 mm | - | 10 W/m² | - |
| 1777633935 | 6.11° C | 91% | 1012.7 hPa | 0.51 mm | - | 10 W/m² | - |
| 1777633629 | 6.11° C | 91% | 1012.6 hPa | 0.51 mm | - | 5 W/m² | - |
| 1777633334 | 6.11° C | 91% | 1012.5 hPa | 0.51 mm | - | 7 W/m² | - |
| 1777633029 | 6.11° C | 91% | 1012.5 hPa | 0.76 mm | - | 4 W/m² | - |
| 1777632735 | 6.11° C | 90% | 1012.6 hPa | 0.51 mm | - | 3 W/m² | - |
| 1777632429 | 6.11° C | 90% | 1012.5 hPa | 0.76 mm | - | 3 W/m² | - |
| 1777632135 | 6.11° C | 90% | 1012.6 hPa | 0.76 mm | - | 2 W/m² | - |
| 1777631829 | 6.11° C | 90% | 1012.8 hPa | 0.76 mm | - | 0 W/m² | - |
| 1777631535 | 6.11° C | 89% | 1012.7 hPa | 0.76 mm | - | 0 W/m² | - |
| 1777631228 | 6.67° C | 89% | 1012.6 hPa | 0.76 mm | - | 0 W/m² | - |
| 1777630934 | 6.67° C | 88% | 1012.8 hPa | 0.51 mm | - | 0 W/m² | - |
| 1777630748 | 6.67° C | 88% | 1012.9 hPa | 0.51 mm | - | 0 W/m² | - |
| 1777630462 | 6.67° C | 88% | 1013 hPa | 0.51 mm | - | 0 W/m² | - |
* Rain latest hour (hover to see other rain measurements)
** Current wind speed in m/s (hover to see current wind gust speed)